Main page
METAR-TAF:

METAR-TAF

Airports :

N'Djamena International Airport

N'Djamena, Chad

latitude: 12-08N, longitude: 015-02E, elevation: 295 m

Current weather observation

The report was made 57 minutes ago, at 08:00 UTC
Wind 6 kt from the South, varying between East/Southeast and South
Temperature 37°C
Humidity 27%
Pressure 1007 hPa
Visibility: 4500 m
widespread dust

METAR: FTTJ 210800Z 17006KT 120V190 4500 DU NSC 37/15 Q1007 BECMG 6000 NSW

Time: 09:57 (08:57 UTC)

Forecast

The report was made 3 hours and 57 minutes ago, at 05:00 UTC
Forecast valid from 21 at 06 UTC to 22 at 12 UTC
Wind 5 kt from variable directions
Visibility: 6000 m
Temporary
from 21 at 09 UTC to 21 at 15 UTC
Wind 10 kt from the Northeast
Temporary
from 21 at 16 UTC to 21 at 19 UTC
Visibility: 4000 m
widespread dust,

TAF: FTTJ 210500Z 2106/2212 VRB05KT 6000 NSC TEMPO 2109/2115 04010KT TEMPO 2116/2119 4000 DU

Weather observations and forecasts of more than 4000 airports (METAR and TAF reports).

The available stations are represented by yellow and red dots on the map.

Hover mouse over dot to see the name of the station.

Then click to see weather observations and forecasts.

To change the map : click on the green buttons with a black cross to zoom in, on the green button with a dash to zoom out, or on the green arrows for adjacent maps.


METAR-TAF: